Year,Month,Day,Hour,Minute,Value (Times are PST for temperature in C)
2019,02,10,00,00,-3.90
2019,02,10,00,01,-3.90
2019,02,10,00,02,-3.90
2019,02,10,00,03,-3.90
2019,02,10,00,04,-3.90
2019,02,10,00,05,-3.90
2019,02,10,00,06,-3.90
2019,02,10,00,07,-3.90
2019,02,10,00,08,-3.90
2019,02,10,00,09,-3.80
2019,02,10,00,10,-3.80
2019,02,10,00,11,-3.80
2019,02,10,00,12,-3.80
2019,02,10,00,13,-3.80
2019,02,10,00,14,-3.80
2019,02,10,00,15,-3.80
2019,02,10,00,16,-3.80
2019,02,10,00,17,-3.80
2019,02,10,00,18,-3.80
2019,02,10,00,19,-3.80
2019,02,10,00,20,-3.80
2019,02,10,00,21,-3.80
2019,02,10,00,22,-3.80
2019,02,10,00,23,-3.80
2019,02,10,00,24,-3.80
2019,02,10,00,25,-3.90
2019,02,10,00,26,-3.90
2019,02,10,00,27,-3.90
2019,02,10,00,28,-3.90
2019,02,10,00,29,-3.90
2019,02,10,00,30,-3.90
2019,02,10,00,31,-3.90
2019,02,10,00,32,-3.90
2019,02,10,00,33,-3.90
2019,02,10,00,34,-3.90
2019,02,10,00,35,-3.90
2019,02,10,00,36,-3.90
2019,02,10,00,37,-3.90
2019,02,10,00,38,-3.90
2019,02,10,00,39,-3.90
2019,02,10,00,40,-3.90
2019,02,10,00,41,-3.90
2019,02,10,00,42,-3.90
2019,02,10,00,43,-3.90
2019,02,10,00,44,-3.90
2019,02,10,00,45,-3.90
2019,02,10,00,46,-3.90
2019,02,10,00,47,-4.00
2019,02,10,00,48,-4.00
2019,02,10,00,49,-4.00
2019,02,10,00,50,-4.00
2019,02,10,00,51,-4.00
2019,02,10,00,52,-4.10
2019,02,10,00,53,-4.10
2019,02,10,00,54,-4.10
2019,02,10,00,55,-4.10
2019,02,10,00,56,-4.10
2019,02,10,00,57,-4.10
2019,02,10,00,58,-4.20
2019,02,10,00,59,-4.20
2019,02,10,01,00,-4.20
2019,02,10,01,01,-4.20
2019,02,10,01,02,-4.20
2019,02,10,01,03,-4.20
2019,02,10,01,04,-4.20
2019,02,10,01,05,-4.30
2019,02,10,01,06,-4.30
2019,02,10,01,07,-4.30
2019,02,10,01,08,-4.30
2019,02,10,01,09,-4.30
2019,02,10,01,10,-4.30
2019,02,10,01,11,-4.30
2019,02,10,01,12,-4.30
2019,02,10,01,13,-4.30
2019,02,10,01,14,-4.30
2019,02,10,01,15,-4.30
2019,02,10,01,16,-4.40
2019,02,10,01,17,-4.40
2019,02,10,01,18,-4.40
2019,02,10,01,19,-4.40
2019,02,10,01,20,-4.40
2019,02,10,01,21,-4.40
2019,02,10,01,22,-4.40
2019,02,10,01,23,-4.40
2019,02,10,01,24,-4.50
2019,02,10,01,25,-4.50
2019,02,10,01,26,-4.50
2019,02,10,01,27,-4.50
2019,02,10,01,28,-4.50
2019,02,10,01,29,-4.50
2019,02,10,01,30,-4.50
2019,02,10,01,31,-4.60
2019,02,10,01,32,-4.60
2019,02,10,01,33,-4.60
2019,02,10,01,34,-4.60
2019,02,10,01,35,-4.60
2019,02,10,01,36,-4.60
2019,02,10,01,37,-4.60
2019,02,10,01,38,-4.70
2019,02,10,01,39,-4.70
2019,02,10,01,40,-4.70
2019,02,10,01,41,-4.70
2019,02,10,01,42,-4.70
2019,02,10,01,43,-4.70
2019,02,10,01,44,-4.70
2019,02,10,01,45,-4.70
2019,02,10,01,46,-4.70
2019,02,10,01,47,-4.70
2019,02,10,01,48,-4.70
2019,02,10,01,49,-4.70
2019,02,10,01,50,-4.70
2019,02,10,01,51,-4.70
2019,02,10,01,52,-4.70
2019,02,10,01,53,-4.70
2019,02,10,01,54,-4.70
2019,02,10,01,55,-4.70
2019,02,10,01,56,-4.70
2019,02,10,01,57,-4.70
2019,02,10,01,58,-4.70
2019,02,10,01,59,-4.70
2019,02,10,02,00,-4.70
2019,02,10,02,01,-4.70
2019,02,10,02,02,-4.70
2019,02,10,02,03,-4.70
2019,02,10,02,04,-4.70
2019,02,10,02,05,-4.70
2019,02,10,02,06,-4.70
2019,02,10,02,07,-4.70
2019,02,10,02,08,-4.70
2019,02,10,02,09,-4.70
2019,02,10,02,10,-4.70
2019,02,10,02,11,-4.70
2019,02,10,02,12,-4.70
2019,02,10,02,13,-4.70
2019,02,10,02,14,-4.70
2019,02,10,02,15,-4.70
2019,02,10,02,16,-4.70
2019,02,10,02,17,-4.70
2019,02,10,02,18,-4.70
2019,02,10,02,19,-4.70
2019,02,10,02,20,-4.80
2019,02,10,02,21,-4.80
2019,02,10,02,22,-4.80
2019,02,10,02,23,-4.80
2019,02,10,02,24,-4.80
2019,02,10,02,25,-4.80
2019,02,10,02,26,-4.80
2019,02,10,02,27,-4.90
2019,02,10,02,28,-4.90
2019,02,10,02,29,-4.90
2019,02,10,02,30,-4.90
2019,02,10,02,31,-4.90
2019,02,10,02,32,-4.90
2019,02,10,02,33,-5.00
2019,02,10,02,34,-5.00
2019,02,10,02,35,-5.00
2019,02,10,02,36,-5.00
2019,02,10,02,37,-5.10
2019,02,10,02,38,-5.10
2019,02,10,02,39,-5.10
2019,02,10,02,40,-5.10
2019,02,10,02,41,-5.10
2019,02,10,02,42,-5.20
2019,02,10,02,43,-5.20
2019,02,10,02,44,-5.20
2019,02,10,02,45,-5.20
2019,02,10,02,46,-5.20
2019,02,10,02,47,-5.20
2019,02,10,02,48,-5.20
2019,02,10,02,49,-5.30
2019,02,10,02,50,-5.30
2019,02,10,02,51,-5.30
2019,02,10,02,52,-5.30
2019,02,10,02,53,-5.30
2019,02,10,02,54,-5.30
2019,02,10,02,55,-5.40
2019,02,10,02,56,-5.40
2019,02,10,02,57,-5.40
2019,02,10,02,58,-5.40
2019,02,10,02,59,-5.40
2019,02,10,03,00,-5.40
2019,02,10,03,01,-5.40
2019,02,10,03,02,-5.50
2019,02,10,03,03,-5.50
2019,02,10,03,04,-5.50
2019,02,10,03,05,-5.50
2019,02,10,03,06,-5.50
2019,02,10,03,07,-5.60
2019,02,10,03,08,-5.60
2019,02,10,03,09,-5.60
2019,02,10,03,10,-5.60
2019,02,10,03,11,-5.60
2019,02,10,03,12,-5.60
2019,02,10,03,13,-5.60
2019,02,10,03,14,-5.60
2019,02,10,03,15,-5.60
2019,02,10,03,16,-5.60
2019,02,10,03,17,-5.60
2019,02,10,03,18,-5.70
2019,02,10,03,19,-5.70
2019,02,10,03,20,-5.70
2019,02,10,03,21,-5.70
2019,02,10,03,22,-5.70
2019,02,10,03,23,-5.70
2019,02,10,03,24,-5.70
2019,02,10,03,25,-5.80
2019,02,10,03,26,-5.80
2019,02,10,03,27,-5.80
2019,02,10,03,28,-5.80
2019,02,10,03,29,-5.80
2019,02,10,03,30,-5.80
2019,02,10,03,31,-5.80
2019,02,10,03,32,-5.80
2019,02,10,03,33,-5.80
2019,02,10,03,34,-5.80
2019,02,10,03,35,-5.80
2019,02,10,03,36,-5.80
2019,02,10,03,37,-5.80
2019,02,10,03,38,-5.80
2019,02,10,03,39,-5.80
2019,02,10,03,40,-5.80
2019,02,10,03,41,-5.80
2019,02,10,03,42,-5.80
2019,02,10,03,43,-5.80
2019,02,10,03,44,-5.70
2019,02,10,03,45,-5.70
2019,02,10,03,46,-5.70
2019,02,10,03,47,-5.70
2019,02,10,03,48,-5.70
2019,02,10,03,49,-5.70
2019,02,10,03,50,-5.70
2019,02,10,03,51,-5.70
2019,02,10,03,52,-5.70
2019,02,10,03,53,-5.70
2019,02,10,03,54,-5.70
2019,02,10,03,55,-5.70
2019,02,10,03,56,-5.70
2019,02,10,03,57,-5.70
2019,02,10,03,58,-5.70
2019,02,10,03,59,-5.70
2019,02,10,04,00,-5.70
2019,02,10,04,01,-5.70
2019,02,10,04,02,-5.70
2019,02,10,04,03,-5.70
2019,02,10,04,04,-5.70
2019,02,10,04,05,-5.80
2019,02,10,04,06,-5.80
2019,02,10,04,07,-5.80
2019,02,10,04,08,-5.80
2019,02,10,04,09,-5.80
2019,02,10,04,10,-5.80
2019,02,10,04,11,-5.80
2019,02,10,04,12,-5.80
2019,02,10,04,13,-5.80
2019,02,10,04,14,-5.80
2019,02,10,04,15,-5.80
2019,02,10,04,16,-5.80
2019,02,10,04,17,-5.80
2019,02,10,04,18,-5.90
2019,02,10,04,19,-5.90
2019,02,10,04,20,-5.90
2019,02,10,04,21,-5.90
2019,02,10,04,22,-5.90
2019,02,10,04,23,-5.90
2019,02,10,04,24,-5.90
2019,02,10,04,25,-5.90
2019,02,10,04,26,-5.90
2019,02,10,04,27,-5.90
2019,02,10,04,28,-5.90
2019,02,10,04,29,-5.90
2019,02,10,04,30,-5.90
2019,02,10,04,31,-5.90
2019,02,10,04,32,-5.90
2019,02,10,04,33,-6.00
2019,02,10,04,34,-6.00
2019,02,10,04,35,-6.00
2019,02,10,04,36,-6.00
2019,02,10,04,37,-6.00
2019,02,10,04,38,-6.00
2019,02,10,04,39,-6.00
2019,02,10,04,40,-6.00
2019,02,10,04,41,-6.10
2019,02,10,04,42,-6.10
2019,02,10,04,43,-6.10
2019,02,10,04,44,-6.10
2019,02,10,04,45,-6.10
2019,02,10,04,46,-6.10
2019,02,10,04,47,-6.10
2019,02,10,04,48,-6.10
2019,02,10,04,49,-6.10
2019,02,10,04,50,-6.10
2019,02,10,04,51,-6.10
2019,02,10,04,52,-6.10
2019,02,10,04,53,-6.10
2019,02,10,04,54,-6.10
2019,02,10,04,55,-6.20
2019,02,10,04,56,-6.20
2019,02,10,04,57,-6.20
2019,02,10,04,58,-6.20
2019,02,10,04,59,-6.20
2019,02,10,05,00,-6.20
2019,02,10,05,01,-6.20
2019,02,10,05,02,-6.20
2019,02,10,05,03,-6.20
2019,02,10,05,04,-6.20
2019,02,10,05,05,-6.20
2019,02,10,05,06,-6.20
2019,02,10,05,07,-6.20
2019,02,10,05,08,-6.20
2019,02,10,05,09,-6.20
2019,02,10,05,10,-6.20
2019,02,10,05,11,-6.20
2019,02,10,05,12,-6.20
2019,02,10,05,13,-6.20
2019,02,10,05,14,-6.20
2019,02,10,05,15,-6.20
2019,02,10,05,16,-6.30
2019,02,10,05,17,-6.30
2019,02,10,05,18,-6.20
2019,02,10,05,19,-6.30
2019,02,10,05,20,-6.30
2019,02,10,05,21,-6.30
2019,02,10,05,22,-6.30
2019,02,10,05,23,-6.30
2019,02,10,05,24,-6.30
2019,02,10,05,25,-6.30
2019,02,10,05,26,-6.30
2019,02,10,05,27,-6.30
2019,02,10,05,28,-6.30
2019,02,10,05,29,-6.30
2019,02,10,05,30,-6.30
2019,02,10,05,31,-6.30
2019,02,10,05,32,-6.30
2019,02,10,05,33,-6.30
2019,02,10,05,34,-6.30
2019,02,10,05,35,-6.30
2019,02,10,05,36,-6.30
2019,02,10,05,37,-6.30
2019,02,10,05,38,-6.30
2019,02,10,05,39,-6.30
2019,02,10,05,40,-6.30
2019,02,10,05,41,-6.40
2019,02,10,05,42,-6.40
2019,02,10,05,43,-6.40
2019,02,10,05,44,-6.40
2019,02,10,05,45,-6.40
2019,02,10,05,46,-6.40
2019,02,10,05,47,-6.40
2019,02,10,05,48,-6.40
2019,02,10,05,49,-6.40
2019,02,10,05,50,-6.40
2019,02,10,05,51,-6.40
2019,02,10,05,52,-6.40
2019,02,10,05,53,-6.40
2019,02,10,05,54,-6.40
2019,02,10,05,55,-6.40
2019,02,10,05,56,-6.40
2019,02,10,05,57,-6.40
2019,02,10,05,58,-6.40
2019,02,10,05,59,-6.40
2019,02,10,06,00,-6.40
2019,02,10,06,01,-6.40
2019,02,10,06,02,-6.40
2019,02,10,06,03,-6.40
2019,02,10,06,04,-6.40
2019,02,10,06,05,-6.40
2019,02,10,06,06,-6.40
2019,02,10,06,07,-6.40
2019,02,10,06,08,-6.50
2019,02,10,06,09,-6.50
2019,02,10,06,10,-6.50
2019,02,10,06,11,-6.50
2019,02,10,06,12,-6.50
2019,02,10,06,13,-6.50
2019,02,10,06,14,-6.50
2019,02,10,06,15,-6.60
2019,02,10,06,16,-6.60
2019,02,10,06,17,-6.60
2019,02,10,06,18,-6.60
2019,02,10,06,19,-6.60
2019,02,10,06,20,-6.60
2019,02,10,06,21,-6.60
2019,02,10,06,22,-6.60
2019,02,10,06,23,-6.60
2019,02,10,06,24,-6.70
2019,02,10,06,25,-6.70
2019,02,10,06,26,-6.70
2019,02,10,06,27,-6.70
2019,02,10,06,28,-6.70
2019,02,10,06,29,-6.70
2019,02,10,06,30,-6.70
2019,02,10,06,31,-6.70
2019,02,10,06,32,-6.70
2019,02,10,06,33,-6.70
2019,02,10,06,34,-6.70
2019,02,10,06,35,-6.70
2019,02,10,06,36,-6.70
2019,02,10,06,37,-6.70
2019,02,10,06,38,-6.70
2019,02,10,06,39,-6.70
2019,02,10,06,40,-6.70
2019,02,10,06,41,-6.70
2019,02,10,06,42,-6.70
2019,02,10,06,43,-6.70
2019,02,10,06,44,-6.70
2019,02,10,06,45,-6.70
2019,02,10,06,46,-6.70
2019,02,10,06,47,-6.70
2019,02,10,06,48,-6.70
2019,02,10,06,49,-6.70
2019,02,10,06,50,-6.70
2019,02,10,06,51,-6.70
2019,02,10,06,52,-6.70
2019,02,10,06,53,-6.70
2019,02,10,06,54,-6.70
2019,02,10,06,55,-6.70
2019,02,10,06,56,-6.70
2019,02,10,06,57,-6.80
2019,02,10,06,58,-6.80
2019,02,10,06,59,-6.80
2019,02,10,07,00,-6.80
2019,02,10,07,01,-6.80
2019,02,10,07,02,-6.80
2019,02,10,07,03,-6.80
2019,02,10,07,04,-6.80
2019,02,10,07,05,-6.80
2019,02,10,07,06,-6.80
2019,02,10,07,07,-6.80
2019,02,10,07,08,-6.80
2019,02,10,07,09,-6.90
2019,02,10,07,10,-6.90
2019,02,10,07,11,-6.90
2019,02,10,07,12,-6.90
2019,02,10,07,13,-6.90
2019,02,10,07,14,-6.90
2019,02,10,07,15,-6.90
2019,02,10,07,16,-6.90
2019,02,10,07,17,-6.90
2019,02,10,07,18,-6.80
2019,02,10,07,19,-6.80
2019,02,10,07,20,-6.80
2019,02,10,07,21,-6.80
2019,02,10,07,22,-6.80
2019,02,10,07,23,-6.80
2019,02,10,07,24,-6.70
2019,02,10,07,25,-6.70
2019,02,10,07,26,-6.70
2019,02,10,07,27,-6.70
2019,02,10,07,28,-6.70
2019,02,10,07,29,-6.70
2019,02,10,07,30,-6.70
2019,02,10,07,31,-6.70
2019,02,10,07,32,-6.70
2019,02,10,07,33,-6.70
2019,02,10,07,34,-6.70
2019,02,10,07,35,-6.70
2019,02,10,07,36,-6.70
2019,02,10,07,37,-6.70
2019,02,10,07,38,-6.70
2019,02,10,07,39,-6.70
2019,02,10,07,40,-6.70
2019,02,10,07,41,-6.70
2019,02,10,07,42,-6.70
2019,02,10,07,43,-6.70
2019,02,10,07,44,-6.70
2019,02,10,07,45,-6.70
2019,02,10,07,46,-6.70
2019,02,10,07,47,-6.70
2019,02,10,07,48,-6.60
2019,02,10,07,49,-6.60
2019,02,10,07,50,-6.60
2019,02,10,07,51,-6.60
2019,02,10,07,52,-6.60
2019,02,10,07,53,-6.60
2019,02,10,07,54,-6.60
2019,02,10,07,55,-6.60
2019,02,10,07,56,-6.60
2019,02,10,07,57,-6.60
2019,02,10,07,58,-6.60
2019,02,10,07,59,-6.60
2019,02,10,08,00,-6.60
2019,02,10,08,01,-6.60
2019,02,10,08,02,-6.60
2019,02,10,08,03,-6.50
2019,02,10,08,04,-6.50
2019,02,10,08,05,-6.40
2019,02,10,08,06,-6.40
2019,02,10,08,07,-6.40
2019,02,10,08,08,-6.30
2019,02,10,08,09,-6.30
2019,02,10,08,10,-6.30
2019,02,10,08,11,-6.30
2019,02,10,08,12,-6.20
2019,02,10,08,13,-6.20
2019,02,10,08,14,-6.20
2019,02,10,08,15,-6.10
2019,02,10,08,16,-6.10
2019,02,10,08,17,-6.10
2019,02,10,08,18,-6.10
2019,02,10,08,19,-6.10
2019,02,10,08,20,-6.10
2019,02,10,08,21,-5.90
2019,02,10,08,22,-5.90
2019,02,10,08,23,-5.90
2019,02,10,08,24,-5.90
2019,02,10,08,25,-5.90
2019,02,10,08,26,-5.80
2019,02,10,08,27,-5.80
2019,02,10,08,28,-5.80
2019,02,10,08,29,-5.80
2019,02,10,08,30,-5.80
2019,02,10,08,31,-5.80
2019,02,10,08,32,-5.70
2019,02,10,08,33,-5.70
2019,02,10,08,34,-5.70
2019,02,10,08,35,-5.70
2019,02,10,08,36,-5.70
2019,02,10,08,37,-5.70
2019,02,10,08,38,-5.60
2019,02,10,08,39,-5.60
2019,02,10,08,40,-5.60
2019,02,10,08,41,-5.60
2019,02,10,08,42,-5.60
2019,02,10,08,43,-5.50
2019,02,10,08,44,-5.50
2019,02,10,08,45,-5.50
2019,02,10,08,46,-5.40
2019,02,10,08,47,-5.40
2019,02,10,08,48,-5.30
2019,02,10,08,49,-5.30
2019,02,10,08,50,-5.30
2019,02,10,08,51,-5.30
2019,02,10,08,52,-5.20
2019,02,10,08,53,-5.20
2019,02,10,08,54,-5.20
2019,02,10,08,55,-5.20
2019,02,10,08,56,-5.20
2019,02,10,08,57,-5.20
2019,02,10,08,58,-5.20
2019,02,10,08,59,-5.20
2019,02,10,09,00,-5.10
2019,02,10,09,01,-5.10
2019,02,10,09,02,-5.10
2019,02,10,09,03,-5.10
2019,02,10,09,04,-5.00
2019,02,10,09,05,-5.00
2019,02,10,09,06,-5.00
2019,02,10,09,07,-5.00
2019,02,10,09,08,-5.00
2019,02,10,09,09,-4.90
2019,02,10,09,10,-4.90
2019,02,10,09,11,-4.90
2019,02,10,09,12,-4.90
2019,02,10,09,13,-4.90
2019,02,10,09,14,-4.80
2019,02,10,09,15,-4.80
2019,02,10,09,16,-4.80
2019,02,10,09,17,-4.80
2019,02,10,09,18,-4.80
2019,02,10,09,19,-4.80
2019,02,10,09,20,-4.80
2019,02,10,09,21,-4.80
2019,02,10,09,22,-4.70
2019,02,10,09,23,-4.70
2019,02,10,09,24,-4.70
2019,02,10,09,25,-4.60
2019,02,10,09,26,-4.60
2019,02,10,09,27,-4.50
2019,02,10,09,28,-4.50
2019,02,10,09,29,-4.40
2019,02,10,09,30,-4.30
2019,02,10,09,31,-4.30
2019,02,10,09,32,-4.20
2019,02,10,09,33,-4.20
2019,02,10,09,34,-4.20
2019,02,10,09,35,-4.10
2019,02,10,09,36,-4.10
2019,02,10,09,37,-4.00
2019,02,10,09,38,-4.00
2019,02,10,09,39,-3.90
2019,02,10,09,40,-3.90
2019,02,10,09,41,-3.90
2019,02,10,09,42,-3.90
2019,02,10,09,43,-3.90
2019,02,10,09,44,-3.90
2019,02,10,09,45,-3.90
2019,02,10,09,46,-3.90
2019,02,10,09,47,-3.90
2019,02,10,09,48,-3.90
2019,02,10,09,49,-4.00
2019,02,10,09,50,-4.00
2019,02,10,09,51,-4.00
2019,02,10,09,52,-4.00
2019,02,10,09,53,-4.00
2019,02,10,09,54,-4.00
2019,02,10,09,55,-3.90
2019,02,10,09,56,-3.90
2019,02,10,09,57,-3.90
2019,02,10,09,58,-3.90
2019,02,10,09,59,-3.90
2019,02,10,10,00,-3.90
2019,02,10,10,01,-3.90
2019,02,10,10,02,-3.90
2019,02,10,10,03,-3.90
2019,02,10,10,04,-3.90
2019,02,10,10,05,-3.90
2019,02,10,10,06,-3.90
2019,02,10,10,07,-3.90
2019,02,10,10,08,-3.90
2019,02,10,10,09,-3.90
2019,02,10,10,10,-3.90
2019,02,10,10,11,-3.80
2019,02,10,10,12,-3.80
2019,02,10,10,13,-3.80
2019,02,10,10,14,-3.80
2019,02,10,10,15,-3.80
2019,02,10,10,16,-3.80
2019,02,10,10,17,-3.70
2019,02,10,10,18,-3.70
2019,02,10,10,19,-3.70
2019,02,10,10,20,-3.70
2019,02,10,10,21,-3.60
2019,02,10,10,22,-3.60
2019,02,10,10,23,-3.60
2019,02,10,10,24,-3.60
2019,02,10,10,25,-3.60
2019,02,10,10,26,-3.50
2019,02,10,10,27,-3.50
2019,02,10,10,28,-3.50
2019,02,10,10,29,-3.50
2019,02,10,10,30,-3.50
2019,02,10,10,31,-3.50
2019,02,10,10,32,-3.50
2019,02,10,10,33,-3.40
2019,02,10,10,34,-3.40
2019,02,10,10,35,-3.40
2019,02,10,10,36,-3.40
2019,02,10,10,37,-3.30
2019,02,10,10,38,-3.30
2019,02,10,10,39,-3.20
2019,02,10,10,40,-3.20
2019,02,10,10,41,-3.10
2019,02,10,10,42,-3.10
2019,02,10,10,43,-3.00
2019,02,10,10,44,-2.90
2019,02,10,10,45,-2.80
2019,02,10,10,46,-2.80
2019,02,10,10,47,-2.70
2019,02,10,10,48,-2.70
2019,02,10,10,49,-2.60
2019,02,10,10,50,-2.60
2019,02,10,10,51,-2.50
2019,02,10,10,52,-2.50
2019,02,10,10,53,-2.40
2019,02,10,10,54,-2.40
2019,02,10,10,55,-2.40
2019,02,10,10,56,-2.30
2019,02,10,10,57,-2.30
2019,02,10,10,58,-2.30
2019,02,10,10,59,-2.30
2019,02,10,11,00,-2.30
2019,02,10,11,01,-2.30
2019,02,10,11,02,-2.30
2019,02,10,11,03,-2.40
2019,02,10,11,04,-2.40
2019,02,10,11,05,-2.40
2019,02,10,11,06,-2.40
2019,02,10,11,07,-2.30
2019,02,10,11,08,-2.30
2019,02,10,11,09,-2.30
2019,02,10,11,10,-2.30
2019,02,10,11,11,-2.30
2019,02,10,11,12,-2.30
2019,02,10,11,13,-2.30
2019,02,10,11,14,-2.20
2019,02,10,11,15,-2.20
2019,02,10,11,16,-2.20
2019,02,10,11,17,-2.20
2019,02,10,11,18,-2.30
2019,02,10,11,19,-2.30
2019,02,10,11,20,-2.30
2019,02,10,11,21,-2.30
2019,02,10,11,22,-2.30
2019,02,10,11,23,-2.30
2019,02,10,11,24,-2.40
2019,02,10,11,25,-2.40
2019,02,10,11,26,-2.40
2019,02,10,11,27,-2.40
2019,02,10,11,28,-2.40
2019,02,10,11,29,-2.50
2019,02,10,11,30,-2.50
2019,02,10,11,31,-2.60
2019,02,10,11,32,-2.60
2019,02,10,11,33,-2.60
2019,02,10,11,34,-2.60
2019,02,10,11,35,-2.60
2019,02,10,11,36,-2.50
2019,02,10,11,37,-2.50
2019,02,10,11,38,-2.50
2019,02,10,11,39,-2.50
2019,02,10,11,40,-2.50
2019,02,10,11,41,-2.50
2019,02,10,11,42,-2.50
2019,02,10,11,43,-2.50
2019,02,10,11,44,-2.50
2019,02,10,11,45,-2.50
2019,02,10,11,46,-2.50
2019,02,10,11,47,-2.50
2019,02,10,11,48,-2.50
2019,02,10,11,49,-2.50
2019,02,10,11,50,-2.40
2019,02,10,11,51,-2.40
2019,02,10,11,52,-2.40
2019,02,10,11,53,-2.40
2019,02,10,11,54,-2.40
2019,02,10,11,55,-2.40
2019,02,10,11,56,-2.40
2019,02,10,11,57,-2.40
2019,02,10,11,58,-2.40
2019,02,10,11,59,-2.40
2019,02,10,12,00,-2.40
2019,02,10,12,01,-2.40
2019,02,10,12,02,-2.40
2019,02,10,12,03,-2.40
2019,02,10,12,04,-2.40
2019,02,10,12,05,-2.40
2019,02,10,12,06,-2.40
2019,02,10,12,07,-2.40
2019,02,10,12,08,-2.50
2019,02,10,12,09,-2.50
2019,02,10,12,10,-2.50
2019,02,10,12,11,-2.50
2019,02,10,12,12,-2.40
2019,02,10,12,13,-2.40
2019,02,10,12,14,-2.40
2019,02,10,12,15,-2.40
2019,02,10,12,16,-2.40
2019,02,10,12,17,-2.50
2019,02,10,12,18,-2.50
2019,02,10,12,19,-2.50
2019,02,10,12,20,-2.50
2019,02,10,12,21,-2.50
2019,02,10,12,22,-2.50
2019,02,10,12,23,-2.50
2019,02,10,12,24,-2.50
2019,02,10,12,25,-2.50
2019,02,10,12,26,-2.50
2019,02,10,12,27,-2.50
2019,02,10,12,28,-2.50
2019,02,10,12,29,-2.50
2019,02,10,12,30,-2.50
2019,02,10,12,31,-2.50
2019,02,10,12,32,-2.50
2019,02,10,12,33,-2.50
2019,02,10,12,34,-2.50
2019,02,10,12,35,-2.50
2019,02,10,12,36,-2.50
2019,02,10,12,37,-2.40
2019,02,10,12,38,-2.40
2019,02,10,12,39,-2.40
2019,02,10,12,40,-2.40
2019,02,10,12,41,-2.40
2019,02,10,12,42,-2.40
2019,02,10,12,43,-2.40
2019,02,10,12,44,-2.40
2019,02,10,12,45,-2.40
2019,02,10,12,46,-2.40
2019,02,10,12,47,-2.40
2019,02,10,12,48,-2.40
2019,02,10,12,49,-2.40
2019,02,10,12,50,-2.40
2019,02,10,12,51,-2.40
2019,02,10,12,52,-2.40
2019,02,10,12,53,-2.30
2019,02,10,12,54,-2.30
2019,02,10,12,55,-2.40
2019,02,10,12,56,-2.30
2019,02,10,12,57,-2.30
2019,02,10,12,58,-2.30
2019,02,10,12,59,-2.30
2019,02,10,13,00,-2.30
2019,02,10,13,01,-2.30
2019,02,10,13,02,-2.30
2019,02,10,13,03,-2.30
2019,02,10,13,04,-2.30
2019,02,10,13,05,-2.30
2019,02,10,13,06,-2.30
2019,02,10,13,07,-2.20
2019,02,10,13,08,-2.20
2019,02,10,13,09,-2.20
2019,02,10,13,10,-2.20
2019,02,10,13,11,-2.20
2019,02,10,13,12,-2.20
2019,02,10,13,13,-2.20
2019,02,10,13,14,-2.20
2019,02,10,13,15,-2.20
2019,02,10,13,16,-2.30
2019,02,10,13,17,-2.30
2019,02,10,13,18,-2.30
2019,02,10,13,19,-2.30
2019,02,10,13,20,-2.30
2019,02,10,13,21,-2.40
2019,02,10,13,22,-2.40
2019,02,10,13,23,-2.40
2019,02,10,13,24,-2.40
2019,02,10,13,25,-2.40
2019,02,10,13,26,-2.50
2019,02,10,13,27,-2.60
2019,02,10,13,28,-2.70
2019,02,10,13,29,-2.70
2019,02,10,13,30,-2.80
2019,02,10,13,31,-2.80
2019,02,10,13,32,-2.90
2019,02,10,13,33,-2.90
2019,02,10,13,34,-2.90
2019,02,10,13,35,-3.00
2019,02,10,13,36,-3.00
2019,02,10,13,37,-3.10
2019,02,10,13,38,-3.10
2019,02,10,13,39,-3.10
2019,02,10,13,40,-3.10
2019,02,10,13,41,-3.10
2019,02,10,13,42,-3.10
2019,02,10,13,43,-3.10
2019,02,10,13,44,-3.20
2019,02,10,13,45,-3.20
2019,02,10,13,46,-3.20
2019,02,10,13,47,-3.20
2019,02,10,13,48,-3.30
2019,02,10,13,49,-3.30
2019,02,10,13,50,-3.30
2019,02,10,13,51,-3.40
2019,02,10,13,52,-3.40
2019,02,10,13,53,-3.50
2019,02,10,13,54,-3.50
2019,02,10,13,55,-3.50
2019,02,10,13,56,-3.60
2019,02,10,13,57,-3.60
2019,02,10,13,58,-3.60
2019,02,10,13,59,-3.60
2019,02,10,14,00,-3.70
2019,02,10,14,01,-3.70
2019,02,10,14,02,-3.70
2019,02,10,14,03,-3.70
2019,02,10,14,04,-3.80
2019,02,10,14,05,-3.80
2019,02,10,14,06,-3.80
2019,02,10,14,07,-3.80
2019,02,10,14,08,-3.80
2019,02,10,14,09,-3.80
2019,02,10,14,10,-3.80
2019,02,10,14,11,-3.80
2019,02,10,14,12,-3.80
2019,02,10,14,13,-3.80
2019,02,10,14,14,-3.80
2019,02,10,14,15,-3.80
2019,02,10,14,16,-3.80
2019,02,10,14,17,-3.80
2019,02,10,14,18,-3.80
2019,02,10,14,19,-3.80
2019,02,10,14,20,-3.90
2019,02,10,14,21,-3.90
2019,02,10,14,22,-3.90
2019,02,10,14,23,-3.90
2019,02,10,14,24,-3.90
2019,02,10,14,25,-3.90
2019,02,10,14,26,-4.00
2019,02,10,14,27,-4.00
2019,02,10,14,28,-4.00
2019,02,10,14,29,-3.90
2019,02,10,14,30,-3.90
2019,02,10,14,31,-3.90
2019,02,10,14,32,-3.90
2019,02,10,14,33,-3.90
2019,02,10,14,34,-3.90
2019,02,10,14,35,-3.90
2019,02,10,14,36,-3.90
2019,02,10,14,37,-3.90
2019,02,10,14,38,-3.90
2019,02,10,14,39,-4.00
2019,02,10,14,40,-4.00
2019,02,10,14,41,-3.90
2019,02,10,14,42,-3.90
2019,02,10,14,43,-3.90
2019,02,10,14,44,-3.90
2019,02,10,14,45,-3.90
2019,02,10,14,46,-3.90
2019,02,10,14,47,-3.90
2019,02,10,14,48,-3.90
2019,02,10,14,49,-3.90
2019,02,10,14,50,-3.90
2019,02,10,14,51,-3.90
2019,02,10,14,52,-3.90
2019,02,10,14,53,-3.90
2019,02,10,14,54,-3.80
2019,02,10,14,55,-3.80
2019,02,10,14,56,-3.80
2019,02,10,14,57,-3.80
2019,02,10,14,58,-3.80
2019,02,10,14,59,-3.80
2019,02,10,15,00,-3.80
2019,02,10,15,01,-3.80
2019,02,10,15,02,-3.80
2019,02,10,15,03,-3.80
2019,02,10,15,04,-3.80
2019,02,10,15,05,-3.80
2019,02,10,15,06,-3.80
2019,02,10,15,07,-3.70
2019,02,10,15,08,-3.70
2019,02,10,15,09,-3.70
2019,02,10,15,10,-3.70
2019,02,10,15,11,-3.70
2019,02,10,15,12,-3.70
2019,02,10,15,13,-3.70
2019,02,10,15,14,-3.70
2019,02,10,15,15,-3.60
2019,02,10,15,16,-3.60
2019,02,10,15,17,-3.60
2019,02,10,15,18,-3.60
2019,02,10,15,19,-3.60
2019,02,10,15,20,-3.60
2019,02,10,15,21,-3.60
2019,02,10,15,22,-3.60
2019,02,10,15,23,-3.60
2019,02,10,15,24,-3.60
2019,02,10,15,25,-3.60
2019,02,10,15,26,-3.60
2019,02,10,15,27,-3.60
2019,02,10,15,28,-3.60
2019,02,10,15,29,-3.60
2019,02,10,15,30,-3.60
2019,02,10,15,31,-3.60
2019,02,10,15,32,-3.60
2019,02,10,15,33,-3.60
2019,02,10,15,34,-3.60
2019,02,10,15,35,-3.50
2019,02,10,15,36,-3.50
2019,02,10,15,37,-3.50
2019,02,10,15,38,-3.50
2019,02,10,15,39,-3.50
2019,02,10,15,40,-3.50
2019,02,10,15,41,-3.50
2019,02,10,15,42,-3.50
2019,02,10,15,43,-3.50
2019,02,10,15,44,-3.50
2019,02,10,15,45,-3.50
2019,02,10,15,46,-3.50
2019,02,10,15,47,-3.40
2019,02,10,15,48,-3.40
2019,02,10,15,49,-3.40
2019,02,10,15,50,-3.40
2019,02,10,15,51,-3.40
2019,02,10,15,52,-3.40
2019,02,10,15,53,-3.40
2019,02,10,15,54,-3.40
2019,02,10,15,55,-3.50
2019,02,10,15,56,-3.40
2019,02,10,15,57,-3.40
2019,02,10,15,58,-3.40
2019,02,10,15,59,-3.40
2019,02,10,16,00,-3.40
2019,02,10,16,01,-3.40
2019,02,10,16,02,-3.40
2019,02,10,16,03,-3.50
2019,02,10,16,04,-3.50
2019,02,10,16,05,-3.50
2019,02,10,16,06,-3.50
2019,02,10,16,07,-3.40
2019,02,10,16,08,-3.40
2019,02,10,16,09,-3.40
2019,02,10,16,10,-3.40
2019,02,10,16,11,-3.40
2019,02,10,16,12,-3.40
2019,02,10,16,13,-3.40
2019,02,10,16,14,-3.40
2019,02,10,16,15,-3.40
2019,02,10,16,16,-3.40
2019,02,10,16,17,-3.40
2019,02,10,16,18,-3.40
2019,02,10,16,19,-3.40
2019,02,10,16,20,-3.40
2019,02,10,16,21,-3.40
2019,02,10,16,22,-3.40
2019,02,10,16,23,-3.40
2019,02,10,16,24,-3.40
2019,02,10,16,25,-3.40
2019,02,10,16,26,-3.40
2019,02,10,16,27,-3.40
2019,02,10,16,28,-3.40
2019,02,10,16,29,-3.40
2019,02,10,16,30,-3.40
2019,02,10,16,31,-3.40
2019,02,10,16,32,-3.40
2019,02,10,16,33,-3.40
2019,02,10,16,34,-3.40
2019,02,10,16,35,-3.40
2019,02,10,16,36,-3.40
2019,02,10,16,37,-3.40
2019,02,10,16,38,-3.40
2019,02,10,16,39,-3.40
2019,02,10,16,40,-3.30
2019,02,10,16,41,-3.30
2019,02,10,16,42,-3.30
2019,02,10,16,43,-3.30
2019,02,10,16,44,-3.30
2019,02,10,16,45,-3.30
2019,02,10,16,46,-3.30
2019,02,10,16,47,-3.30
2019,02,10,16,48,-3.30
2019,02,10,16,49,-3.30
2019,02,10,16,50,-3.30
2019,02,10,16,51,-3.30
2019,02,10,16,52,-3.30
2019,02,10,16,53,-3.30
2019,02,10,16,54,-3.30
2019,02,10,16,55,-3.30
2019,02,10,16,56,-3.30
2019,02,10,16,57,-3.30
2019,02,10,16,58,-3.30
2019,02,10,16,59,-3.30
2019,02,10,17,00,-3.30
2019,02,10,17,01,-3.30
2019,02,10,17,02,-3.20
2019,02,10,17,03,-3.20
2019,02,10,17,04,-3.20
2019,02,10,17,05,-3.20
2019,02,10,17,06,-3.20
2019,02,10,17,07,-3.20
2019,02,10,17,08,-3.20
2019,02,10,17,09,-3.20
2019,02,10,17,10,-3.20
2019,02,10,17,11,-3.20
2019,02,10,17,12,-3.20
2019,02,10,17,13,-3.20
2019,02,10,17,14,-3.20
2019,02,10,17,15,-3.20
2019,02,10,17,16,-3.20
2019,02,10,17,17,-3.20
2019,02,10,17,18,-3.20
2019,02,10,17,19,-3.20